Home   Weather   City of Louisville   Past weeks
Flag for USA

Past Weather in City of Louisville, Georgia, USA — Yesterday and Last 2 Weeks

Now
57 °F

Low clouds.


Feels Like: 57 °F
Forecast: 61 / 51 °F
Wind: 3 mph from West

Location: Daniel Field

Current Time: Mar 26, 2019 at 3:27:17 am

Latest Report: Mar 26, 2019 at 2:53 am


Visibility: 8 mi

Pressure: 29.95 "Hg

Humidity: 90%

Dew Point: 54 °F

Location of City of LouisvilleLocation

Past Weather in City of Louisville — Graph

°F

City of Louisville Temperature Yesterday

Maximum temperature yesterday: 77 °F (at 1:53 pm)
Minimum temperature yesterday: 59 °F (at 4:53 am)
Average temperature yesterday: 65 °F

High & Low Weather Summary for the Past Weeks

 TemperatureHumidityPressure
High80 °F (Mar 15, 3:53 pm)90% (Mar 25, 8:53 pm)30.40 "Hg (Mar 25, 8:53 pm)
Low38 °F (Mar 20, 6:53 am)13% (Mar 18, 1:53 pm)29.80 "Hg (Mar 21, 3:53 pm)
Average60 °F50%30.15 "Hg
* Reported Mar 11 2:53 am — Mar 26 2:11 am, City of Louisville. Weather by CustomWeather, © 2019

Note: Actual official high and low records may vary slightly from our data, if they occured in-between our weather recording intervals... More about our weather records

Advertising

City of Louisville Weather History for the Previous 24 Hours

Scroll right to see more
 ConditionsComfort  
Time TempWeatherWind HumidityBarometerVisibility
2:11 am
Tue, Mar 26
58 °FPassing clouds.3 mph90%29.97 "Hg10 mi
1:53 am58 °FClear.No wind90%29.95 "Hg10 mi
12:53 am58 °FPassing clouds.5 mph90%29.95 "Hg10 mi
12:26 am59 °FPassing clouds.6 mph90%29.96 "Hg10 mi
11:53 pm
Mon, Mar 25
59 °FPassing clouds.5 mph90%29.95 "Hg10 mi
10:53 pm60 °FLight rain. Mostly cloudy.3 mph86%29.94 "Hg10 mi
10:26 pm60 °FRain. Fog.5 mph86%29.99 "Hg4 mi
10:11 pm60 °FThunderstorms. Fog.5 mph90%29.98 "Hg4 mi
9:34 pm60 °FThunderstorms. Mostly cloudy.3 mph90%29.97 "Hg7 mi
9:02 pm60 °FThundershowers. Overcast.No wind86%29.95 "Hg10 mi
8:53 pm60 °FMostly cloudy.No wind90%29.93 "Hg10 mi
7:53 pm61 °FLight rain. Mostly cloudy.12 mph83%29.93 "Hg10 mi
6:53 pm74 °FBroken clouds.9 mph38%29.88 "Hg10 mi
5:53 pm76 °FScattered clouds.6 mph35%29.88 "Hg10 mi
4:53 pm75 °FOvercast.8 mph37%29.91 "Hg10 mi
3:53 pm76 °FPassing clouds.6 mph37%29.93 "Hg10 mi
2:53 pm76 °FPassing clouds.6 mph37%29.95 "Hg10 mi
1:53 pm77 °FScattered clouds.N/A37%29.99 "Hg10 mi
12:53 pm74 °FScattered clouds.9 mph38%30.02 "Hg10 mi
11:53 am73 °FSunny.12 mph43%30.05 "Hg10 mi
10:53 am68 °FMostly cloudy.8 mph55%30.06 "Hg10 mi
9:53 am65 °FScattered clouds.7 mph63%30.07 "Hg10 mi
8:53 am60 °FPassing clouds.3 mph83%30.07 "Hg10 mi
7:53 am59 °FPartly sunny.No wind84%30.06 "Hg10 mi
6:53 am59 °FPassing clouds.6 mph87%30.06 "Hg10 mi
5:53 am59 °FClear.No wind87%30.06 "Hg10 mi
4:53 am59 °FClear.5 mph87%30.08 "Hg10 mi
3:53 am60 °FClear.5 mph80%30.09 "Hg10 mi
Weather by CustomWeather, © 2019

See weather overview